Weather History for Bismarck, ND

Change the Weather History Date:

Thursday, March 20, 2014

  Actual Average Record
Temperature  
Mean Temperature 41 °F 32 °F  
Max Temperature 58 °F 42 °F 73 °F (1911)
Min Temperature 24 °F 21 °F -17 °F (1876)
Degree Days  
Heating Degree Days 24 33  
Month to date heating degree days 741 753  
Since 1 July heating degree days 7593 7184  
Cooling Degree Days 0 0  
Month to date cooling degree days 0 0  
Year to date cooling degree days 0 0  
Moisture  
Dew Point 26 °F    
Average Humidity 61    
Maximum Humidity 92    
Minimum Humidity 30    
Precipitation  
Precipitation T in 0.03 in 0.52 in (1894)
Month to date precipitation 0.22 0.52  
Year to date precipitation 0.79 1.46  
Snow  
Snow 0.00 in 0.30 in 5.40 in (2002)
Month to date snowfall 2.2 6.2  
Since 1 July snowfall 27.4 43.7  
Snow Depth 0.00 in    
Sea Level Pressure  
Sea Level Pressure 29.83 in    
Wind  
Wind Speed 8 mph (East)    
Max Wind Speed 24 mph    
Max Gust Speed 29 mph    
Visibility 10 miles    
Events Rain    
T = Trace of Precipitation, MM = Missing Value Source: NWS Daily Summary

Daily Weather History Graph

Daily Weather History Graph

Search for Another Location

Airport:

Trip Planner

Search our weather history database for the weather conditions in past years. The results will help you decide how hot, cold, wet, or windy it might be!

Date:

Astronomy

Mar. 20, 2014 Rise Set
Actual Time 7:45 AM CDT 7:55 PM CDT
Civil Twilight 7:15 AM CDT 8:26 PM CDT
Nautical Twilight 6:40 AM CDT 9:01 PM CDT
Astronomical Twilight 6:03 AM CDT 9:38 PM CDT
Moon No Moon Rise 9:39 AM CDT (3/20)
Length of Visible Light 13h 10m
Length of Day
12h 09m
Waning Gibbous, 84% of the Moon is Illuminated
Mar 20
Waning Gibbous
Mar 23
Last Quarter
Mar 30
New
Apr 7
First Quarter
Apr 15
Full

Hourly Weather History & Observations

Time (CDT) Temp. Windchill Dew Point Humidity Pressure Visibility Wind Dir Wind Speed Gust Speed Precip Events Conditions
12:52 AM 25.0 °F 19.3 °F 21.9 °F 88% 29.99 in 10.0 mi ENE 4.6 mph - N/A   Clear
1:52 AM 27.0 °F 20.5 °F 23.0 °F 85% 29.97 in 10.0 mi NE 5.8 mph - N/A   Overcast
2:52 AM 27.0 °F 21.6 °F 23.0 °F 85% 29.96 in 10.0 mi East 4.6 mph - N/A   Mostly Cloudy
3:52 AM 27.0 °F 19.5 °F 24.1 °F 89% 29.94 in 10.0 mi NE 6.9 mph - N/A   Overcast
4:52 AM 27.0 °F 20.5 °F 23.0 °F 85% 29.94 in 10.0 mi ENE 5.8 mph - N/A   Mostly Cloudy
5:52 AM 27.0 °F 18.7 °F 23.0 °F 85% 29.92 in 10.0 mi NE 8.1 mph - N/A   Mostly Cloudy
6:52 AM 27.0 °F 18.7 °F 24.1 °F 89% 29.91 in 10.0 mi East 8.1 mph - N/A   Overcast
7:52 AM 25.0 °F 16.3 °F 21.9 °F 88% 29.89 in 10.0 mi ENE 8.1 mph - N/A   Scattered Clouds
8:52 AM 28.9 °F 23.9 °F 25.0 °F 85% 29.88 in 10.0 mi East 4.6 mph - N/A   Mostly Cloudy
9:52 AM 35.1 °F 30.1 °F 28.0 °F 76% 29.87 in 10.0 mi SE 5.8 mph - N/A   Overcast
10:52 AM 39.9 °F 35.8 °F 28.0 °F 63% 29.84 in 10.0 mi SSE 5.8 mph - N/A   Partly Cloudy
11:52 AM 45.0 °F 41.2 °F 27.0 °F 49% 29.82 in 10.0 mi South 6.9 mph - N/A   Clear
12:52 PM 51.1 °F - 27.0 °F 39% 29.78 in 10.0 mi South 8.1 mph - N/A   Clear
1:52 PM 54.0 °F - 26.1 °F 34% 29.75 in 10.0 mi Variable 5.8 mph - N/A   Clear
2:52 PM 55.9 °F - 25.0 °F 30% 29.72 in 10.0 mi WSW 12.7 mph - N/A   Scattered Clouds
3:52 PM 52.0 °F - 27.0 °F 38% 29.73 in 10.0 mi SW 11.5 mph 28.8 mph 0.00 in Rain Light Rain
4:52 PM 55.0 °F - 25.0 °F 31% 29.71 in 10.0 mi West 15.0 mph - 0.00 in   Overcast
5:52 PM 54.0 °F - 27.0 °F 35% 29.71 in 10.0 mi West 16.1 mph 21.9 mph N/A   Overcast
6:52 PM 52.0 °F - 28.9 °F 41% 29.71 in 10.0 mi WSW 9.2 mph - N/A   Scattered Clouds
7:52 PM 48.9 °F - 30.0 °F 48% 29.73 in 10.0 mi North 18.4 mph 21.9 mph N/A   Scattered Clouds
8:52 PM 42.1 °F 40.2 °F 33.1 °F 70% 29.75 in 10.0 mi East 3.5 mph - N/A   Partly Cloudy
9:52 PM 39.9 °F - 33.1 °F 77% 29.75 in 10.0 mi Calm Calm - N/A   Mostly Cloudy
10:52 PM 37.9 °F 34.4 °F 30.9 °F 76% 29.78 in 10.0 mi West 4.6 mph - N/A   Mostly Cloudy
11:52 PM 34.0 °F 28.0 °F 28.9 °F 82% 29.78 in 10.0 mi West 6.9 mph - N/A   Clear